Athens, OH

1:09 AM EST on December 13, 2017 (GMT -0500)
Ohio University

Weather History for KUNI - November, 2012

Change the Weather History Date:

Monday, November 19, 2012

  Actual Average (KPKB) Record (KPKB)
Temperature  
Mean Temperature 39 °F -  
Max Temperature 54 °F 55 °F 78 °F (1985)
Min Temperature 24 °F 36 °F 13 °F (2014)
Degree Days  
Heating Degree Days 26    
Moisture  
Dew Point 29 °F    
Average Humidity 75    
Maximum Humidity 91    
Minimum Humidity 43    
Precipitation  
Precipitation 0.00 in - - ()
Sea Level Pressure  
Sea Level Pressure 30.31 in    
Wind  
Wind Speed 0 mph (West)    
Max Wind Speed 4 mph    
Max Gust Speed -    
Visibility 10 miles    
Events      
Averages and records for this station are not official NWS values.
T = Trace of Precipitation, MM = Missing Value Source: NWS Daily Summary

Daily Weather History Graph

Daily Weather History Graph

Search for Another Location

Airport or City:

Trip Planner

Search our weather history database for the weather conditions in past years. The results will help you decide how hot, cold, wet, or windy it might be!

Date:

Astronomy

Nov. 19, 2012 Rise Set
Actual Time 7:17 AM EST 5:11 PM EST
Civil Twilight 6:48 AM EST 5:40 PM EST
Nautical Twilight 6:15 AM EST 6:12 PM EST
Astronomical Twilight 5:43 AM EST 6:44 PM EST
Moon 12:20 PM EST (11/19) 11:35 PM EST (11/19)
Length of Visible Light 10h 51m
Length of Day
9h 54m
Waxing Crescent, 40% of the Moon is Illuminated
Nov 19
Waxing Crescent
Nov 20
First Quarter
Nov 28
Full
Dec 6
Last Quarter
Dec 13
New

Hourly Weather History & Observations

Time (EST) Temp. Windchill Dew Point Humidity Pressure Visibility Wind Dir Wind Speed Gust Speed Precip Events Conditions
12:15 AM 28.8 °F - 24.1 °F 83% 30.40 in 10.0 mi Calm Calm - N/A   Clear
12:35 AM 29.1 °F - 24.3 °F 82% 30.40 in 10.0 mi Calm Calm - N/A   Clear
12:55 AM 28.6 °F - 24.3 °F 84% 30.39 in 10.0 mi Calm Calm - N/A   Clear
1:15 AM 28.9 °F - 24.6 °F 84% 30.39 in 10.0 mi Calm Calm - N/A   Clear
1:35 AM 28.0 °F - 23.7 °F 84% 30.38 in 10.0 mi Calm Calm - N/A   Clear
1:55 AM 27.5 °F - 23.9 °F 86% 30.38 in 10.0 mi Calm Calm - N/A   Clear
2:15 AM 27.7 °F - 23.7 °F 85% 30.38 in 10.0 mi Calm Calm - N/A   Clear
2:35 AM 27.0 °F - 23.7 °F 88% 30.37 in 10.0 mi Calm Calm - N/A   Clear
2:55 AM 26.8 °F - 23.7 °F 88% 30.37 in 10.0 mi Calm Calm - N/A   Clear
3:15 AM 26.2 °F - 23.2 °F 88% 30.37 in 10.0 mi Calm Calm - N/A   Clear
3:35 AM 26.6 °F - 23.7 °F 89% 30.36 in 10.0 mi Calm Calm - N/A   Clear
4:15 AM 26.2 °F - 23.0 °F 88% 30.36 in 10.0 mi Calm Calm - N/A   Clear
4:35 AM 25.3 °F - 22.3 °F 88% 30.37 in 10.0 mi Calm Calm - N/A   Clear
5:15 AM 26.1 °F - 22.8 °F 88% 30.37 in 10.0 mi Calm Calm - N/A   Clear
5:35 AM 25.7 °F - 22.6 °F 88% 30.37 in 10.0 mi Calm Calm - N/A   Clear
6:15 AM 24.8 °F - 22.1 °F 89% 30.37 in 10.0 mi Calm Calm - N/A   Clear
6:35 AM 24.3 °F - 21.7 °F 90% 30.37 in 10.0 mi Calm Calm - N/A   Clear
6:55 AM 25.2 °F - 22.5 °F 89% 30.38 in 10.0 mi Calm Calm - N/A   Clear
7:15 AM 25.5 °F - 22.1 °F 87% 30.38 in 10.0 mi Calm Calm - N/A   Clear
7:35 AM 25.2 °F - 22.3 °F 89% 30.37 in 10.0 mi Calm Calm - N/A   Clear
7:55 AM 26.2 °F - 22.8 °F 87% 30.37 in 10.0 mi North - - N/A   Clear
8:15 AM 26.6 °F - 23.7 °F 89% 30.38 in 10.0 mi Calm Calm - N/A   Clear
8:35 AM 30.0 °F - 25.9 °F 85% 30.38 in 10.0 mi Calm Calm - N/A   Clear
8:55 AM 30.9 °F - 26.2 °F 83% 30.39 in 10.0 mi Calm Calm - N/A   Clear
9:15 AM 32.0 °F - 28.2 °F 86% 30.38 in 10.0 mi Calm Calm - N/A   Clear
9:35 AM 33.1 °F - 28.4 °F 83% 30.37 in 10.0 mi Calm Calm - N/A   Clear
9:55 AM 34.3 °F - 29.1 °F 81% 30.37 in 10.0 mi Calm Calm - N/A   Clear
10:15 AM 36.3 °F - 30.6 °F 80% 30.37 in 10.0 mi Calm Calm - N/A   Clear
10:35 AM 39.0 °F - 32.2 °F 76% 30.37 in 10.0 mi Calm Calm - N/A   Clear
10:55 AM 42.4 °F - 32.9 °F 69% 30.36 in 10.0 mi Calm Calm - N/A   Clear
11:35 AM 47.5 °F - 33.8 °F 59% 30.35 in 10.0 mi Calm Calm - N/A   Clear
11:55 AM 48.6 °F - 34.0 °F 57% 30.33 in 10.0 mi Calm Calm - N/A   Clear
12:15 PM 49.3 °F - 33.8 °F 55% 30.32 in 10.0 mi Calm Calm - N/A   Clear
12:35 PM 50.0 °F - 34.3 °F 55% 30.31 in 10.0 mi Calm Calm - N/A   Clear
12:55 PM 50.5 °F - 33.8 °F 53% 30.31 in 10.0 mi Calm Calm - N/A   Clear
1:15 PM 51.1 °F - 34.5 °F 53% 30.30 in 10.0 mi Calm Calm - N/A   Clear
1:35 PM 52.2 °F - 35.1 °F 52% 30.30 in 10.0 mi Calm Calm - N/A   Clear
1:55 PM 53.8 °F - 34.0 °F 47% 30.29 in 10.0 mi Calm Calm - N/A   Clear
2:15 PM 54.1 °F - 33.8 °F 46% 30.29 in 10.0 mi Calm Calm - N/A   Clear
2:35 PM 54.0 °F - 32.2 °F 44% 30.28 in 10.0 mi Calm Calm - N/A   Clear
2:55 PM 54.0 °F - 31.8 °F 43% 30.27 in 10.0 mi Calm Calm - N/A   Clear
3:15 PM 54.1 °F - 31.8 °F 43% 30.27 in 10.0 mi Calm Calm - N/A   Clear
3:35 PM 53.8 °F - 33.3 °F 46% 30.26 in 10.0 mi Calm Calm - N/A   Clear
3:55 PM 53.8 °F - 32.7 °F 45% 30.26 in 10.0 mi Calm Calm - N/A   Clear
4:15 PM 53.6 °F - 32.7 °F 45% 30.26 in 10.0 mi Calm Calm - N/A   Clear
4:35 PM 52.7 °F - 32.9 °F 47% 30.26 in 10.0 mi Calm Calm - N/A   Clear
4:55 PM 52.0 °F - 33.6 °F 50% 30.25 in 10.0 mi Calm Calm - N/A   Clear
5:15 PM 50.0 °F - 34.7 °F 56% 30.25 in 10.0 mi Calm Calm - N/A   Clear
5:35 PM 47.5 °F - 34.3 °F 60% 30.24 in 10.0 mi Calm Calm - N/A   Clear
5:55 PM 45.0 °F - 33.6 °F 64% 30.24 in 10.0 mi Calm Calm - N/A   Clear
6:15 PM 44.2 °F - 33.1 °F 65% 30.24 in 10.0 mi Calm Calm - N/A   Clear
6:35 PM 41.5 °F - 32.0 °F 69% 30.24 in 10.0 mi Calm Calm - N/A   Clear
6:55 PM 40.6 °F - 32.2 °F 72% 30.23 in 10.0 mi Calm Calm - N/A   Clear
7:15 PM 37.8 °F 35.3 °F 31.6 °F 79% 30.24 in 10.0 mi West 3.5 mph - N/A   Clear
7:35 PM 39.6 °F - 32.7 °F 76% 30.23 in 10.0 mi Calm Calm - N/A   Clear
7:55 PM 36.5 °F - 31.8 °F 83% 30.24 in 10.0 mi Calm Calm - N/A   Clear
8:15 PM 36.9 °F - 32.0 °F 83% 30.23 in 10.0 mi Calm Calm - N/A   Clear
8:35 PM 34.9 °F - 30.9 °F 85% 30.23 in 10.0 mi Calm Calm - N/A   Clear
8:55 PM 35.6 °F - 31.1 °F 84% 30.23 in 10.0 mi Calm Calm - N/A   Clear
9:15 PM 34.7 °F - 30.7 °F 85% 30.23 in 10.0 mi Calm Calm - N/A   Clear
9:35 PM 34.3 °F - 30.7 °F 87% 30.23 in 10.0 mi Calm Calm - N/A   Clear
9:55 PM 34.2 °F - 30.6 °F 87% 30.23 in 10.0 mi Calm Calm - N/A   Clear
10:15 PM 33.6 °F - 30.9 °F 90% 30.22 in 10.0 mi Calm Calm - N/A   Clear
10:35 PM 34.0 °F - 31.3 °F 90% 30.22 in 10.0 mi Calm Calm - N/A   Clear
10:55 PM 33.3 °F - 30.9 °F 91% 30.21 in 10.0 mi Calm Calm - N/A   Clear
11:15 PM 33.4 °F - 30.9 °F 90% 30.20 in 10.0 mi Calm Calm - N/A   Clear
11:35 PM 32.9 °F - 30.4 °F 90% 30.19 in 10.0 mi Calm Calm - N/A   Clear
11:55 PM 32.2 °F 28.9 °F 29.3 °F 89% 30.20 in 10.0 mi West 3.5 mph - N/A   Clear